Weather History for Chico, CA

Change the Weather History Date:

Saturday, April 27, 2013

  Actual Average (KOVE) Record (KOVE)
Temperature  
Mean Temperature 72 °F -  
Max Temperature 86 °F 75 °F 94 °F (1987)
Min Temperature 57 °F 50 °F 32 °F (1955)
Cooling Degree Days 6    
Growing Degree Days 22 (Base 50)    
Moisture  
Dew Point 50 °F    
Average Humidity 51    
Maximum Humidity 72    
Minimum Humidity 25    
Precipitation  
Precipitation 0.00 in - - ()
Sea Level Pressure  
Sea Level Pressure 30.12 in    
Wind  
Wind Speed 2 mph (East)    
Max Wind Speed 12 mph    
Max Gust Speed -    
Visibility 10 miles    
Events      
Averages and records for this station are not official NWS values.
T = Trace of Precipitation, MM = Missing Value Source: NWS Daily Summary

Daily Weather History Graph

Daily Weather History Graph

Search for Another Location

Airport:

Trip Planner

Search our weather history database for the weather conditions in past years. The results will help you decide how hot, cold, wet, or windy it might be!

Date:

Astronomy

Apr. 27, 2013 Rise Set
Actual Time 6:12 AM PDT 7:58 PM PDT
Civil Twilight 5:43 AM PDT 8:27 PM PDT
Nautical Twilight 5:08 AM PDT 9:02 PM PDT
Astronomical Twilight 4:31 AM PDT 9:39 PM PDT
Moon 10:32 PM PDT (4/27) 7:36 AM PDT (4/27)
Length of Visible Light 14h 43m
Length of Day
13h 45m
Waning Gibbous, 95% of the Moon is Illuminated
Apr 27
Waning Gibbous
May 2
Last Quarter
May 9
New
May 17
First Quarter
May 24
Full

Hourly Weather History & Observations

Time (PDT) Temp. Heat Index Dew Point Humidity Pressure Visibility Wind Dir Wind Speed Gust Speed Precip Events Conditions
12:15 AM 66.2 °F - 50.0 °F 56% 30.15 in 10.0 mi Calm Calm - N/A   Clear
12:35 AM 66.2 °F - 50.0 °F 56% 30.15 in 10.0 mi Calm Calm - N/A   Scattered Clouds
12:55 AM 66.2 °F - 48.2 °F 52% 30.15 in 10.0 mi Calm Calm - N/A   Mostly Cloudy
1:15 AM 66.2 °F - 48.2 °F 52% 30.15 in 10.0 mi Calm Calm - N/A   Mostly Cloudy
1:55 AM 62.6 °F - 48.2 °F 59% 30.15 in 10.0 mi Calm Calm - N/A   Mostly Cloudy
2:15 AM 60.8 °F - 48.2 °F 63% 30.15 in 10.0 mi Calm Calm - N/A   Scattered Clouds
2:35 AM 59.0 °F - 50.0 °F 72% 30.15 in 10.0 mi North 3.5 mph - N/A   Partly Cloudy
2:55 AM 60.8 °F - 48.2 °F 63% 30.15 in 10.0 mi Calm Calm - N/A   Clear
3:15 AM 59.0 °F - 48.2 °F 67% 30.15 in 10.0 mi Calm Calm - N/A   Clear
4:35 AM 59.0 °F - 48.2 °F 67% 30.16 in 10.0 mi Calm Calm - N/A   Clear
4:55 AM 59.0 °F - 48.2 °F 67% 30.16 in 10.0 mi SSE 3.5 mph - N/A   Partly Cloudy
5:15 AM 59.0 °F - 48.2 °F 67% 30.17 in 10.0 mi Calm Calm - N/A   Scattered Clouds
5:35 AM 59.0 °F - 48.2 °F 67% 30.17 in 10.0 mi Calm Calm - N/A   Mostly Cloudy
5:55 AM 57.2 °F - 46.4 °F 67% 30.17 in 10.0 mi SE 3.5 mph - N/A   Scattered Clouds
6:15 AM 57.2 °F - 46.4 °F 67% 30.18 in 10.0 mi Calm Calm - N/A   Clear
6:35 AM 57.2 °F - 46.4 °F 67% 30.18 in 10.0 mi Calm Calm - N/A   Clear
6:55 AM 59.0 °F - 46.4 °F 63% 30.18 in 10.0 mi Calm Calm - N/A   Clear
6:56 AM 59.0 °F - 46.4 °F 63% 30.18 in 10.0 mi Calm Calm - N/A   Clear
7:15 AM 59.0 °F - 46.4 °F 63% 30.19 in 10.0 mi Calm Calm - N/A   Clear
7:35 AM 60.8 °F - 46.4 °F 59% 30.20 in 10.0 mi Calm Calm - N/A   Clear
7:47 AM 60.8 °F - 48.2 °F 63% 30.20 in 10.0 mi Calm Calm - N/A   Clear
8:47 AM 66.2 °F - 50.0 °F 56% 30.20 in 10.0 mi SE 8.1 mph - N/A   Clear
9:47 AM 68.0 °F - 50.0 °F 52% 30.20 in 10.0 mi South 11.5 mph - N/A   Clear
10:50 AM 71.6 °F - 51.8 °F 50% 30.20 in 10.0 mi SE 6.9 mph - N/A   Clear
11:59 AM 75.2 °F - 53.6 °F 47% 30.19 in 10.0 mi SE 6.9 mph - N/A   Clear
12:52 PM 77.0 °F - 53.6 °F 44% 30.16 in 10.0 mi WNW 5.8 mph - N/A   Clear
1:55 PM 80.6 °F 80.3 °F 53.6 °F 39% 30.13 in 10.0 mi South 11.5 mph - N/A   Clear
2:47 PM 84.2 °F 82.8 °F 53.6 °F 35% 30.11 in 10.0 mi SE 9.2 mph - N/A   Clear
3:47 PM 84.2 °F 83.0 °F 55.4 °F 37% 30.08 in 10.0 mi South 9.2 mph - N/A   Clear
4:47 PM 86.0 °F 84.2 °F 53.6 °F 33% 30.06 in 10.0 mi SSE 11.5 mph - N/A   Clear
5:52 PM 86.0 °F - 46.4 °F 25% 30.05 in 10.0 mi SSE 9.2 mph - N/A   Clear
6:53 PM 86.0 °F - 50.0 °F 29% 30.03 in 10.0 mi Calm Calm - N/A   Clear
7:55 PM 82.4 °F 82.0 °F 57.2 °F 42% 30.02 in 10.0 mi Calm Calm - N/A   Clear
8:15 PM 80.6 °F 80.8 °F 57.2 °F 45% 30.02 in 10.0 mi Calm Calm - N/A   Clear
8:35 PM 77.0 °F - 50.0 °F 39% 30.02 in 10.0 mi NE 4.6 mph - N/A   Clear
8:55 PM 77.0 °F - 50.0 °F 39% 30.03 in 10.0 mi ENE 3.5 mph - N/A   Clear
9:15 PM 75.2 °F - 50.0 °F 41% 30.03 in 10.0 mi NE 3.5 mph - N/A   Clear
9:35 PM 75.2 °F - 50.0 °F 41% 30.04 in 10.0 mi NE 4.6 mph - N/A   Clear
9:55 PM 73.4 °F - 48.2 °F 41% 30.04 in 10.0 mi NE 5.8 mph - N/A   Clear
10:15 PM 73.4 °F - 48.2 °F 41% 30.04 in 10.0 mi NE 6.9 mph - N/A   Clear
10:35 PM 73.4 °F - 48.2 °F 41% 30.04 in 10.0 mi ENE 4.6 mph - N/A   Clear
10:55 PM 71.6 °F - 48.2 °F 43% 30.04 in 10.0 mi ENE 3.5 mph - N/A   Clear
11:15 PM 71.6 °F - 48.2 °F 43% 30.03 in 10.0 mi ENE 3.5 mph - N/A   Clear
11:35 PM 73.4 °F - 48.2 °F 41% 30.03 in 10.0 mi ENE 4.6 mph - N/A   Clear
11:55 PM 71.6 °F - 48.2 °F 43% 30.03 in 10.0 mi East 4.6 mph - N/A   Clear